Regional Weather Roundup
Issued by NWS

Home | Current Version | Previous Version | Graphics & Text | Print | Product List | Glossary On
Versions: 1 2 3 4 5 6 7 8 9 10 11 12 13 14 15 16 17 18 19 20 21 22 23 24 25 26 27 28 29 30 31 32 33 34 35 36 37 38 39 40 41 42 43 44 45 46 47 48 49 50
000
ASUS43 KOAX 121010
RWRNE

WEATHER ROUNDUP FOR NEBRASKA
NATIONAL WEATHER SERVICE OMAHA NE
400 AM CST FRI FEB 12 2016

NOTES: SATELLITE DATA IS BEING USED TO AUGMENT CLOUD COVER ABOVE
       12000 FEET.
       "FAIR" INDICATES FEW OR NO CLOUDS BELOW 12,000 FEET WITH NO
       SIGNIFICANT WEATHER AND/OR OBSTRUCTIONS TO VISIBILITY.

  * THESE STATIONS DO NOT REPORT WEATHER SUCH AS RAIN...SNOW OR FOG.

NEZ001>004-019>022-054>056-121100-
NEBRASKA PANHANDLE

CITY           SKY/WX    TMP DP  RH WIND       PRES   REMARKS
SCOTTSBLUFF    CLOUDY    30  26  85 NW6       30.26R WCI  24
ALLIANCE       CLOUDY    26  23  88 W3        30.23S
CHADRON        CLEAR     20  18  92 CALM      30.26S
KIMBALL        CLOUDY    34  27  75 W9        30.26R WCI  27
SIDNEY         CLOUDY    31  26  82 NW8       30.25S WCI  23
$$

NEZ057>060-069>072-079>082-121100-
SOUTHWEST NEBRASKA

CITY           SKY/WX    TMP DP  RH WIND       PRES   REMARKS
NORTH PLATTE   CLOUDY    26  23  88 CALM      30.27R
IMPERIAL       CLEAR     30  25  81 W5        30.27R WCI  25
LEXINGTON      CLOUDY    32  29  88 NW8       30.27S WCI  25
MCCOOK         CLEAR     29  26  89 NW8       30.28R WCI  21
OGALLALA       CLEAR     29  26  88 W6        30.27R WCI  23
$$

NEZ005>010-023>029-035>040-094-121100-
NORTH CENTRAL NEBRASKA

CITY           SKY/WX    TMP DP  RH WIND       PRES   REMARKS
VALENTINE      CLOUDY    30  27  88 N7        30.28R WCI  23
AINSWORTH      CLOUDY    31  28  90 N12       30.26S WCI  21
BROKEN BOW     CLOUDY    32  28  85 N7        30.26R WCI  26
O`NEILL        CLOUDY    26  23  88 N7        30.28S WCI  19
ORD            MOCLDY    28  24  85 N9        30.27R WCI  19
THEDFORD       CLOUDY    32  30  93 W7        30.27R WCI  26
$$

NEZ041-046>049-061>064-073>077-083>087-121100-
SOUTH CENTRAL NEBRASKA

CITY           SKY/WX    TMP DP  RH WIND       PRES   REMARKS
GRAND ISLAND   CLOUDY    27  24  89 N15       30.29R WCI  15
AURORA         CLOUDY    27  26  93 N16       30.28R WCI  15
HASTINGS       CLOUDY    28  24  85 N13       30.27R WCI  17
HEBRON         CLOUDY    30  27  89 N12       30.26R WCI  20
HOLDREGE       CLOUDY    32  29  89 N7        30.27R WCI  26
KEARNEY *      CLOUDY    30  25  80 N13       30.28R WCI  20
YORK           CLOUDY    27  27 100 N9        30.28R WCI  17
$$

NEZ011>018-030>034-042>045-121100-
NORTHEAST NEBRASKA

CITY           SKY/WX    TMP DP  RH WIND       PRES   REMARKS
NORFOLK        CLOUDY    23  20  88 NW15      30.29R WCI  10
ALBION         CLOUDY    27  22  82 N13G18    30.29R WCI  16
BLAIR          CLOUDY    24  21  89 N15       30.26S WCI  11
COLUMBUS *     CLOUDY    27  16  63 NW12      30.29R WCI  16
FREMONT        MOCLDY    24  20  84 NW8       30.30R WCI  15
TEKAMAH        CLEAR     14  12  92 N8        30.31R WCI   3
WAYNE          CLOUDY    19  18  93 N9        30.30F WCI   9
$$

NEZ050>053-065>068-078-088>093-121100-
SOUTHEAST NEBRASKA

CITY           SKY/WX    TMP DP  RH WIND       PRES   REMARKS
LINCOLN        CLOUDY    28  24  85 N18       30.29R WCI  15
OMAHA EPPLEY   CLOUDY    23  19  85 N15       30.29R WCI  10
BEATRICE       CLOUDY    29  27  90 N12       30.26R WCI  20
FALLS CITY     CLOUDY    29  22  75 NW3       30.25R
NEBRASKA CITY  CLOUDY    28  25  87 N10       30.26R WCI  18
PLATTSMOUTH    CLOUDY    26  22  85 NW8       30.26S WCI  18
$$

NEZ044-045-051>053-067-121100-
OMAHA AREA

CITY           SKY/WX    TMP DP  RH WIND       PRES   REMARKS
OMAHA EPPLEY   CLOUDY    23  19  85 N15       30.29R WCI  10
BLAIR          CLOUDY    24  21  89 N15       30.26S WCI  11
FREMONT        MOCLDY    24  20  84 NW8       30.30R WCI  15
MILLARD        CLOUDY    26  21  81 NW10G16   30.29R WCI  17
OFFUTT AFB     CLOUDY    26  22  84 NW7       30.27R WCI  19
PLATTSMOUTH    CLOUDY    26  22  85 NW8       30.26S WCI  18
WAHOO          CLOUDY    27  23  85 N15       30.28R WCI  15
$$



USA.gov is the U.S. government's official web portal to all federal, state and local government web resources and services.